Flag for U.S.A. Weather past 2 weeks in El Paso, Texas, U.S.A.

63 °F

Mostly cloudy.

Feels Like: 63 °F
Forecast: 58 / 76 °F
Wind: No wind

Location: El Paso International Airport

Current Time: Oct 9, 2015 at 3:51:07 AM

Latest Report: Oct 9, 2015 at 2:51 AM

Visibility: 10 mi

Pressure: 30.02 "Hg (26.24 "Hg at 1142m altitude)

Humidity: 73%

Dew point: 54 °F

Location of El PasoLocation

Historic Weather in El Paso — Graph


El Paso temperature yesterday

Maximum temperature yesterday: 71 °F (at 4:51 PM)
Minimum temperature yesterday: 58 °F (at 6:51 AM)
Average temperature yesterday: 64 °F

Past Weeks' High & Low Weather Summary

High96 °F (Sep 28, 3:51 PM)94% (Oct 6, 12:53 AM)30.18 "Hg (Oct 6, 12:53 AM)
Low58 °F (Oct 8, 6:51 AM)12% (Sep 28, 3:51 PM)29.49 "Hg (Oct 3, 2:51 PM)
Average74 °F49%29.86 "Hg
* Reported Sep 24 1:51 AM — Oct 9 1:51 AM, El Paso, Weather by CustomWeather, © 2015

Note: Actual official high and low records may vary slightly from our data, if they occured in-between our weather recording intervals... More about our weather records


El Paso weather history for previous 24 hours

Time TempWeatherWind HumidityBarometerVisibility
1:51 AM
Fri, Oct 9
63 °FOvercast.5 mph73%30.02 "Hg10 mi
12:51 AM63 °FMostly cloudy.3 mph70%30.01 "Hg10 mi
11:51 PM
Thu, Oct 8
64 °FPassing clouds.3 mph68%30.02 "Hg10 mi
10:51 PM64 °FPassing clouds.No wind68%30.02 "Hg10 mi
9:51 PM65 °FPassing clouds.6 mph63%30.01 "Hg10 mi
8:51 PM65 °FPassing clouds.5 mph63%30.00 "Hg10 mi
7:51 PM65 °FPassing clouds.8 mph63%29.97 "Hg10 mi
6:51 PM67 °FPartly sunny.8 mph57%29.96 "Hg10 mi
5:51 PM69 °FPartly sunny.8 mph55%29.93 "Hg10 mi
4:51 PM71 °FPartly sunny.8 mph47%29.91 "Hg10 mi
3:51 PM70 °FBroken clouds.7 mph51%29.92 "Hg10 mi
2:51 PM70 °FBroken clouds.7 mph53%29.93 "Hg10 mi
1:51 PM68 °FMostly cloudy.9 mph57%29.97 "Hg10 mi
12:51 PM68 °FBroken clouds.6 mph57%29.98 "Hg10 mi
11:51 AM66 °FBroken clouds.9 mph63%30.00 "Hg10 mi
10:51 AM66 °FBroken clouds.9 mph61%30.00 "Hg10 mi
9:51 AM64 °FScattered clouds.9 mph68%30.00 "Hg10 mi
8:51 AM62 °FPassing clouds.8 mph70%29.99 "Hg10 mi
7:51 AM59 °FPassing clouds.6 mph81%29.97 "Hg10 mi
6:51 AM58 °FPassing clouds.No wind84%29.95 "Hg10 mi
5:51 AM60 °FPartly cloudy.6 mph80%29.92 "Hg10 mi
4:51 AM60 °FPassing clouds.3 mph78%29.92 "Hg10 mi
3:51 AM60 °FPassing clouds.No wind78%29.93 "Hg10 mi
Weather by CustomWeather, © 2015

See weather overviewHow to use our weather pages